Time,TemperatureF,DewpointF,PressureIn,WindDirection,WindDirectionDegrees,WindSpeedMPH,WindSpeedGustMPH,Humidity,HourlyPrecipIn,Conditions,Clouds,dailyrainin,SolarRadiationWatts/m^2,SoftwareType,DateUTC
2013-03-27 00:12:00,30.0,28.0,-100.00,NE,34,0.0,1.0,92,0.00,,,0.00,0.000000,,2013-03-27 07:12:00,
2013-03-27 00:22:00,30.0,28.0,-100.00,NE,34,0.0,1.0,92,0.00,,,0.00,0.000000,,2013-03-27 07:22:00,
2013-03-27 00:32:00,30.0,28.0,-100.00,NE,34,0.0,1.0,92,0.00,,,0.00,0.000000,,2013-03-27 07:32:00,
2013-03-27 00:42:00,30.0,28.0,-100.00,NE,34,0.0,1.0,92,0.00,,,0.00,0.000000,,2013-03-27 07:42:00,
2013-03-27 01:12:00,28.0,27.0,-100.00,NNE,18,0.0,0.0,95,0.00,,,0.00,0.000000,,2013-03-27 08:12:00,
2013-03-27 01:22:00,28.0,27.0,-100.00,NNE,18,0.0,0.0,95,0.00,,,0.00,0.000000,,2013-03-27 08:22:00,
2013-03-27 01:32:00,28.0,27.0,-100.00,NNE,18,0.0,0.0,95,0.00,,,0.00,0.000000,,2013-03-27 08:32:00,
2013-03-27 01:43:00,28.0,27.0,-100.00,NNE,18,0.0,0.0,95,0.00,,,0.00,0.000000,,2013-03-27 08:43:00,
2013-03-27 01:51:00,28.0,27.0,-100.00,NNE,18,0.0,0.0,95,0.00,,,0.00,0.000000,,2013-03-27 08:51:00,
2013-03-27 01:52:00,29.0,28.0,-100.00,NE,40,0.0,0.0,95,0.00,,,0.00,0.000000,,2013-03-27 08:52:00,
2013-03-27 02:12:00,29.0,28.0,-100.00,NE,40,0.0,0.0,95,0.00,,,0.00,0.000000,,2013-03-27 09:12:00,
2013-03-27 02:22:00,29.0,28.0,-100.00,NE,40,0.0,0.0,95,0.00,,,0.00,0.000000,,2013-03-27 09:22:00,
2013-03-27 02:32:00,29.0,28.0,-100.00,NE,40,0.0,0.0,95,0.00,,,0.00,0.000000,,2013-03-27 09:32:00,
2013-03-27 02:42:00,29.0,28.0,-100.00,NE,40,0.0,0.0,95,0.00,,,0.00,0.000000,,2013-03-27 09:42:00,
2013-03-27 02:52:00,29.0,28.0,-100.00,NE,43,0.0,0.0,95,0.00,,,0.00,0.000000,,2013-03-27 09:52:00,
2013-03-27 03:12:00,29.0,28.0,-100.00,NE,43,0.0,0.0,95,0.00,,,0.00,0.000000,,2013-03-27 10:12:00,
2013-03-27 03:22:00,29.0,28.0,-100.00,NE,43,0.0,0.0,95,0.00,,,0.00,0.000000,,2013-03-27 10:22:00,
2013-03-27 03:32:00,29.0,28.0,-100.00,NE,43,0.0,0.0,95,0.00,,,0.00,0.000000,,2013-03-27 10:32:00,
2013-03-27 03:42:00,29.0,28.0,-100.00,NE,43,0.0,0.0,95,0.00,,,0.00,0.000000,,2013-03-27 10:42:00,
2013-03-27 03:52:00,30.0,28.0,-100.00,NNE,16,0.0,2.0,94,0.00,,,0.00,0.000000,,2013-03-27 10:52:00,
2013-03-27 04:12:00,30.0,28.0,-100.00,NNE,16,0.0,2.0,94,0.00,,,0.00,0.000000,,2013-03-27 11:12:00,
2013-03-27 04:22:00,30.0,28.0,-100.00,NNE,16,0.0,2.0,94,0.00,,,0.00,0.000000,,2013-03-27 11:22:00,
2013-03-27 04:32:00,30.0,28.0,-100.00,NNE,16,0.0,2.0,94,0.00,,,0.00,0.000000,,2013-03-27 11:32:00,
2013-03-27 04:42:00,30.0,28.0,-100.00,NNE,16,0.0,2.0,94,0.00,,,0.00,0.000000,,2013-03-27 11:42:00,
2013-03-27 05:22:00,30.0,28.0,-100.00,NNE,22,0.0,1.0,94,0.00,,,0.00,0.000000,,2013-03-27 12:22:00,
2013-03-27 05:32:00,30.0,28.0,-100.00,NNE,22,0.0,1.0,94,0.00,,,0.00,0.000000,,2013-03-27 12:32:00,
2013-03-27 05:42:00,30.0,28.0,-100.00,NNE,22,0.0,1.0,94,0.00,,,0.00,0.000000,,2013-03-27 12:42:00,
2013-03-27 05:51:00,30.0,28.0,-100.00,NNE,22,0.0,1.0,94,0.00,,,0.00,0.000000,,2013-03-27 12:51:00,
2013-03-27 05:52:00,31.0,29.0,-100.00,NNE,21,0.0,1.0,94,0.00,,,0.00,0.000000,,2013-03-27 12:52:00,
2013-03-27 06:12:00,31.0,29.0,-100.00,NNE,21,0.0,1.0,94,0.00,,,0.00,0.000000,,2013-03-27 13:12:00,
2013-03-27 06:22:00,31.0,29.0,-100.00,NNE,21,0.0,1.0,94,0.00,,,0.00,0.000000,,2013-03-27 13:22:00,
2013-03-27 06:32:00,31.0,29.0,-100.00,NNE,21,0.0,1.0,94,0.00,,,0.00,0.000000,,2013-03-27 13:32:00,
2013-03-27 06:42:00,31.0,29.0,-100.00,NNE,21,0.0,1.0,94,0.00,,,0.00,0.000000,,2013-03-27 13:42:00,
2013-03-27 07:12:00,31.0,30.0,-100.00,SSW,202,0.0,2.0,95,0.00,,,0.00,2.000000,,2013-03-27 14:12:00,
2013-03-27 07:22:00,31.0,30.0,-100.00,SSW,202,0.0,2.0,95,0.00,,,0.00,2.000000,,2013-03-27 14:22:00,
2013-03-27 07:32:00,31.0,30.0,-100.00,SSW,202,0.0,2.0,95,0.00,,,0.00,2.000000,,2013-03-27 14:32:00,
2013-03-27 07:42:00,31.0,30.0,-100.00,SSW,202,0.0,2.0,95,0.00,,,0.00,2.000000,,2013-03-27 14:42:00,
2013-03-27 07:51:00,31.0,30.0,-100.00,SSW,202,0.0,2.0,95,0.00,,,0.00,2.000000,,2013-03-27 14:51:00,
2013-03-27 07:52:00,33.0,32.0,-100.00,South,173,0.0,2.0,95,0.00,,,-99.99,31.000000,,2013-03-27 14:52:00,
2013-03-27 08:12:00,33.0,32.0,-100.00,South,173,0.0,2.0,95,0.00,,,-99.99,31.000000,,2013-03-27 15:12:00,
2013-03-27 08:22:00,33.0,32.0,-100.00,South,173,0.0,2.0,95,0.00,,,-99.99,31.000000,,2013-03-27 15:22:00,
2013-03-27 08:32:00,33.0,32.0,-100.00,South,173,0.0,2.0,95,0.00,,,-99.99,31.000000,,2013-03-27 15:32:00,
2013-03-27 08:42:00,33.0,32.0,-100.00,South,173,0.0,2.0,95,0.00,,,-99.99,31.000000,,2013-03-27 15:42:00,
2013-03-27 10:52:00,50.0,42.0,-100.00,SSE,153,0.0,3.0,74,-99.99,,,0.00,312.000000,,2013-03-27 17:52:00,
2013-03-27 11:12:00,50.0,42.0,-100.00,SSE,153,0.0,3.0,74,-99.99,,,0.00,312.000000,,2013-03-27 18:12:00,
2013-03-27 11:22:00,50.0,42.0,-100.00,SSE,153,0.0,3.0,74,-99.99,,,0.00,312.000000,,2013-03-27 18:22:00,
2013-03-27 11:32:00,50.0,42.0,-100.00,SSE,153,0.0,3.0,74,-99.99,,,0.00,312.000000,,2013-03-27 18:32:00,
2013-03-27 11:42:00,50.0,42.0,-100.00,SSE,153,0.0,3.0,74,-99.99,,,0.00,312.000000,,2013-03-27 18:42:00,
2013-03-27 11:52:00,53.0,36.0,-100.00,SSE,147,1.0,4.0,53,0.00,,,0.00,381.000000,,2013-03-27 18:52:00,
2013-03-27 12:42:00,53.0,36.0,-100.00,SSE,147,1.0,4.0,53,0.00,,,0.00,381.000000,,2013-03-27 19:42:00,
2013-03-27 12:52:00,55.0,36.0,-100.00,South,174,1.0,5.0,49,0.00,,,0.00,395.000000,,2013-03-27 19:52:00,
2013-03-27 13:12:00,55.0,36.0,-100.00,South,174,1.0,5.0,49,0.00,,,0.00,395.000000,,2013-03-27 20:12:00,
2013-03-27 13:22:00,55.0,36.0,-100.00,South,174,1.0,5.0,49,0.00,,,0.00,395.000000,,2013-03-27 20:22:00,
2013-03-27 13:32:00,55.0,36.0,-100.00,South,174,1.0,5.0,49,0.00,,,0.00,395.000000,,2013-03-27 20:32:00,
2013-03-27 13:42:00,55.0,36.0,-100.00,South,174,1.0,5.0,49,0.00,,,0.00,395.000000,,2013-03-27 20:42:00,
2013-03-27 13:52:00,59.0,31.0,-100.00,South,187,4.0,10.0,35,0.01,,,0.01,667.000000,,2013-03-27 20:52:00,
2013-03-27 14:12:00,59.0,31.0,-100.00,South,187,4.0,10.0,35,0.01,,,0.01,667.000000,,2013-03-27 21:12:00,
2013-03-27 14:22:00,59.0,31.0,-100.00,South,187,4.0,10.0,35,0.01,,,0.01,667.000000,,2013-03-27 21:22:00,
2013-03-27 14:32:00,59.0,31.0,-100.00,South,187,4.0,10.0,35,0.01,,,0.01,667.000000,,2013-03-27 21:32:00,
2013-03-27 14:42:00,59.0,31.0,-100.00,South,187,4.0,10.0,35,0.01,,,0.01,667.000000,,2013-03-27 21:42:00,
2013-03-27 14:52:00,62.0,35.0,-100.00,ESE,115,3.0,11.0,36,0.00,,,0.01,672.000000,,2013-03-27 21:52:00,
2013-03-27 15:12:00,62.0,35.0,-100.00,ESE,115,3.0,11.0,36,0.00,,,0.01,672.000000,,2013-03-27 22:12:00,
2013-03-27 15:23:00,62.0,35.0,-100.00,ESE,115,3.0,11.0,36,0.00,,,0.01,672.000000,,2013-03-27 22:23:00,
2013-03-27 15:32:00,62.0,35.0,-100.00,ESE,115,3.0,11.0,36,0.00,,,0.01,672.000000,,2013-03-27 22:32:00,
2013-03-27 15:42:00,62.0,35.0,-100.00,ESE,115,3.0,11.0,36,0.00,,,0.01,672.000000,,2013-03-27 22:42:00,
2013-03-27 16:12:00,51.0,37.0,-100.00,NNW,347,1.0,9.0,58,0.00,,,0.01,184.000000,,2013-03-27 23:12:00,
2013-03-27 16:22:00,51.0,37.0,-100.00,NNW,347,1.0,9.0,58,0.00,,,0.01,184.000000,,2013-03-27 23:22:00,
2013-03-27 16:32:00,51.0,37.0,-100.00,NNW,347,1.0,9.0,58,0.00,,,0.01,184.000000,,2013-03-27 23:32:00,
2013-03-27 16:42:00,51.0,37.0,-100.00,NNW,347,1.0,9.0,58,0.00,,,0.01,184.000000,,2013-03-27 23:42:00,
2013-03-27 16:51:00,51.0,37.0,-100.00,NNW,347,1.0,9.0,58,0.00,,,0.01,184.000000,,2013-03-27 23:51:00,
2013-03-27 17:22:00,45.0,35.0,-100.00,North,357,1.0,6.0,69,0.00,,,0.01,143.000000,,2013-03-28 00:22:00,